WetterOnline ( http://www.wetteronline.de )

Wetter aktuell Offenbach

Aktuelles Wetter: Offenbach (119m)

6-stündlich | Neueste Meldungen
Ortszeit Temperatur Wetter
Fr, 19.10. 2:00 10.7° C leicht bewölkt
Do, 18.10. 20:00 14.8° C fast wolkenlos
Do, 18.10. 14:00 19.4° C wolkenlos
Do, 18.10. 8:00 7.9° C bedeckt
Do, 18.10. 2:00 9.8° C wolkig
Mi, 17.10. 20:00 14.6° C bedeckt
Mi, 17.10. 14:00 20.6° C leicht bewölkt
Mi, 17.10. 8:00 8.3° C leicht bewölkt
Ortszeit Temperatur Wetter
Fr, 19.10. 5:10 10.8° C bedeckt
Fr, 19.10. 5:00 10.8° C bedeckt
Fr, 19.10. 4:50 10.8° C bedeckt
Fr, 19.10. 4:40 10.7° C bedeckt
Fr, 19.10. 4:30 10.2° C bewölkt
Fr, 19.10. 4:20 10.2° C bewölkt
Fr, 19.10. 4:00 10.2° C bewölkt
Fr, 19.10. 3:30 9.9° C bewölkt
Fr, 19.10. 3:00 10.1° C wolkenlos
Fr, 19.10. 2:30 10.3° C wolkenlos
Fr, 19.10. 2:00 10.7° C leicht bewölkt
Ortszeit Relative Feuchte Sichtweite
Fr, 19.10. 2:00 85% 35 km
Do, 18.10. 20:00 74% 16 km
Do, 18.10. 14:00 60% 13 km
Do, 18.10. 8:00 97% 7 km
Do, 18.10. 2:00 95% 10 km
Mi, 17.10. 20:00 78% 26 km
Mi, 17.10. 14:00 50% 29 km
Mi, 17.10. 8:00 98% 5.0 km
Ortszeit Relative Feuchte Sichtweite
Fr, 19.10. 5:10 86% -
Fr, 19.10. 5:00 85% 15 km
Fr, 19.10. 4:50 85% -
Fr, 19.10. 4:40 85% -
Fr, 19.10. 4:30 87% 17 km
Fr, 19.10. 4:20 87% -
Fr, 19.10. 4:00 86% 21 km
Fr, 19.10. 3:30 87% 27 km
Fr, 19.10. 3:00 86% 30 km
Fr, 19.10. 2:30 86% 29 km
Fr, 19.10. 2:00 85% 35 km
Ortszeit Niederschlagsmenge Niederschlagsart
Fr, 19.10. 2:00 0.0 l/m2 in 6 Std. -
Do, 18.10. 20:00 0.0 l/m2 in 12 Std. -
Do, 18.10. 14:00 0.0 l/m2 in 6 Std. -
Do, 18.10. 8:00 0.0 l/m2 in 12 Std. -
Do, 18.10. 2:00 0.0 l/m2 in 6 Std. -
Mi, 17.10. 20:00 0.0 l/m2 in 12 Std. -
Mi, 17.10. 14:00 0.0 l/m2 in 6 Std. -
Mi, 17.10. 8:00 0.0 l/m2 in 12 Std. -
Ortszeit Niederschlagsmenge Niederschlagsart
Fr, 19.10. 5:10 keine Meldung -
Fr, 19.10. 5:00 0.0 l/m2 in 1 Std. -
Fr, 19.10. 4:50 keine Meldung -
Fr, 19.10. 4:40 keine Meldung -
Fr, 19.10. 4:30 0.0 l/m2 in 1 Std. -
Fr, 19.10. 4:20 keine Meldung -
Fr, 19.10. 4:00 0.0 l/m2 in 1 Std. -
Fr, 19.10. 3:30 0.0 l/m2 in 1 Std. -
Fr, 19.10. 3:00 0.0 l/m2 in 1 Std. -
Fr, 19.10. 2:30 0.0 l/m2 in 1 Std. -
Fr, 19.10. 2:00 0.0 l/m2 in 1 Std. -
Ortszeit Stärke Spitze Richtung
km/h Bft. km/h Grad Sektor
Fr, 19.10. 2:00 6 1 15 360° N
Do, 18.10. 20:00 6 1 33 10° N
Do, 18.10. 14:00 9 2 30 10° N
Do, 18.10. 8:00 2 1 7 160° S
Do, 18.10. 2:00 0 0 4 - -
Mi, 17.10. 20:00 0 0 11 - -
Mi, 17.10. 14:00 4 1 11 30° NO
Mi, 17.10. 8:00 4 1 11 30° NO
Ortszeit Stärke Spitze Richtung
km/h Bft. km/h Grad Sektor
Fr, 19.10. 5:10 4 1 - 30° NO
Fr, 19.10. 5:00 6 1 13 10° N
Fr, 19.10. 4:50 6 1 - 10° N
Fr, 19.10. 4:40 7 2 - 360° N
Fr, 19.10. 4:30 6 1 13 10° N
Fr, 19.10. 4:20 6 1 - 10° N
Fr, 19.10. 4:00 7 2 14 360° N
Fr, 19.10. 3:30 7 2 11 360° N
Fr, 19.10. 3:00 7 2 11 360° N
Fr, 19.10. 2:30 6 1 11 350° N
Fr, 19.10. 2:00 6 1 13 360° N
Ortszeit Untergrenze Bedeckung Gattung
total tief tief mittel hoch
Fr, 19.10. 2:00 1200 m 2/8 1/8 - - -
Do, 18.10. 20:00 8100 m 2/8 0/8 - - -
Do, 18.10. 14:00 1800 m 0/8 0/8 - - -
Do, 18.10. 8:00 6000 m 8/8 8/8 - - -
Do, 18.10. 2:00 8400 m 8/8 0/8 - - -
Mi, 17.10. 20:00 6300 m 8/8 8/8 - - -
Mi, 17.10. 14:00 8400 m 8/8 0/8 - - -
Mi, 17.10. 8:00 3300 m 2/8 1/8 - - -
Ortszeit Bedeckungsgrad in Achtel und Wolkenuntergrenze
Fr, 19.10. 5:10 8(570m)
Fr, 19.10. 5:00 8(570m)
Fr, 19.10. 4:50 8(570m)
Fr, 19.10. 4:40 8(570m)
Fr, 19.10. 4:30 7(570m)
Fr, 19.10. 4:20 7(570m)
Fr, 19.10. 4:00 7(600m)
Fr, 19.10. 3:30 1(660m) 4(1800m) 9
Fr, 19.10. 3:00 keine Wolken
Fr, 19.10. 2:30 keine Wolken
Fr, 19.10. 2:00 1(1200m)
Ortszeit Luftdruck NN (hPa) Tendenz (hPa in 3 Std.)
Fr, 19.10. 2:00 1023 - 0,3
Do, 18.10. 20:00 1022 + 1,2
Do, 18.10. 14:00 1021 - 0,6
Do, 18.10. 8:00 1021 + 1,0
Do, 18.10. 2:00 1020 + 0,1
Mi, 17.10. 20:00 1019 + 0,6
Mi, 17.10. 14:00 1019 - 1,1
Mi, 17.10. 8:00 1020 + 0,3
Ortszeit Luftdruck NN (hPa) Tendenz (hPa in 3 Std.)
Fr, 19.10. 5:10 1023 keine Meldung
Fr, 19.10. 5:00 1023 0,0
Fr, 19.10. 4:50 1023 keine Meldung
Fr, 19.10. 4:40 1023 keine Meldung
Fr, 19.10. 4:30 1023 - 0,2
Fr, 19.10. 4:20 1023 keine Meldung
Fr, 19.10. 4:00 1023 - 0,1
Fr, 19.10. 3:30 1023 - 0,3
Fr, 19.10. 3:00 1023 - 0,3
Fr, 19.10. 2:30 1023 - 0,4
Fr, 19.10. 2:00 1023 - 0,3
Ortszeit Schneehöhe (cm)
Fr, 19.10. 2:00 -
Do, 18.10. 20:00 -
Do, 18.10. 14:00 -
Do, 18.10. 8:00 -
Do, 18.10. 2:00 -
Mi, 17.10. 20:00 -
Mi, 17.10. 14:00 -
Mi, 17.10. 8:00 -
Ortszeit Schneehöhe (cm)
Fr, 19.10. 5:10 -
Fr, 19.10. 5:00 -
Fr, 19.10. 4:50 -
Fr, 19.10. 4:40 -
Fr, 19.10. 4:30 -
Fr, 19.10. 4:20 -
Fr, 19.10. 4:00 -
Fr, 19.10. 3:30 -
Fr, 19.10. 3:00 -
Fr, 19.10. 2:30 -
Fr, 19.10. 2:00 -
Link zu dieser Seite / Seite empfehlen

Das Wetter in ...